Location: ??
(35.4824°N, 139.4679°E)
Time: 21:42:01
(UTC+00:00)

CZ-4B R/B - Pass Details

Date: 29 October 2020
Orbit: 489 x 649 km, 97.9° (Epoch: 24 November)

Event Time Altitude Azimuth Distance (km) Brightness Sun altitude
Rises 20:25:49 0° 0° (N) 2,782 6.3 -8.0°
Reaches altitude 10° 20:28:04 10° 351° (N) 1,908 5.4 -7.5°
Maximum altitude 20:31:47 33° 287° (WNW) 1,028 3.7 -6.8°
Drops below altitude 10° 20:35:38 10° 224° (SW) 1,977 5.4 -6.0°
Sets 20:38:01 0° 215° (SW) 2,901 6.3 -5.5°
